EHI
0 0 0 1 1 1 1 0 0 0 0 0 1 3 3 4 8 12 13 12 10 10 11 9 7 8 14 15 13 15 18 21 21 17 14 11 8 7 6 6 6 6 5 5
0 0 0 1 2 2 2 1 0 0 0 1 3 4 4 6 10 14 13 10 9 10 10 9 6 8 14 16 14 14 16 18 18 16 15 12 9 8 7 7 6 5 5 5
0 0 0 1 1 2 2 1 0 0 1 3 5 5 5 7 11 13 11 9 9 10 11 10 9 11 17 20 17 13 13 14 15 15 14 12 10 9 8 7 6 5 5 5
0 0 0 0 0 1 1 0 0 1 2 4 7 7 6 7 9 10 9 8 9 12 14 14 15 17 21 22 19 15 13 13 13 13 11 10 10 9 8 7 7 6 5 5
0 0 0 0 0 0 0 0 0 1 4 6 8 9 8 8 10 10 9 9 10 13 15 16 18 21 22 22 19 17 16 14 13 11 9 9 9 9 8 8 9 8 6 6
0 0 0 0 0 0 0 0 1 3 5 7 7 9 10 10 12 12 10 10 13 14 14 14 15 18 20 20 19 18 17 14 12 11 10 9 9 9 8 9 10 10 9 9
0 0 0 0 0 0 0 0 1 4 6 7 7 8 10 11 12 13 12 11 13 14 12 10 12 16 17 18 17 15 14 12 11 10 9 9 10 10 9 8 8 9 9 9
0 0 0 0 0 0 0 1 2 4 8 9 9 10 11 13 14 15 13 12 13 13 11 9 11 13 14 13 11 10 9 9 9 9 10 10 11 11 10 8 7 8 8 7
1 1 0 0 0 0 0 1 3 6 10 12 11 11 12 14 16 16 14 13 13 12 11 10 10 10 9 7 6 6 6 7 8 9 10 12 13 13 11 10 8 8 7 6
2 2 1 1 1 1 2 3 6 8 10 11 10 9 11 13 14 13 12 12 12 11 10 9 8 6 4 4 5 5 6 6 6 8 9 11 12 12 11 10 9 8 7 6
2 1 2 3 3 3 4 6 8 8 8 9 8 7 8 9 9 8 8 8 9 8 6 6 6 4 4 5 6 6 6 5 4 5 7 9 9 8 7 6 6 6 5 5
1 0 1 3 3 3 4 6 7 8 8 9 8 7 6 6 5 4 4 5 5 5 4 4 5 6 6 7 7 6 5 4 4 4 6 8 9 8 5 3 3 2 2 3
0 0 1 3 3 3 3 4 6 8 9 9 8 6 4 4 3 3 3 3 3 4 4 4 5 7 8 9 8 6 5 4 4 5 6 7 9 9 7 4 2 1 0 1
0 0 2 3 3 3 2 3 6 8 8 7 6 4 3 3 3 2 2 2 3 4 3 3 4 6 9 10 9 8 5 4 4 4 5 5 6 7 7 6 4 2 1 1
0 0 1 3 3 2 1 2 4 5 6 6 6 5 4 4 3 2 2 2 3 3 3 3 4 6 8 9 10 9 7 4 3 3 3 3 3 4 5 6 5 4 3 2
0 0 1 2 2 1 1 2 2 2 4 7 8 7 6 6 6 4 3 3 3 3 3 3 3 4 6 8 9 8 7 4 3 2 1 2 2 3 3 2 3 3 3 3
0 0 1 1 1 0 1 1 1 1 3 6 8 7 6 7 7 5 3 3 3 3 3 3 3 3 4 6 7 6 5 3 2 1 1 1 2 2 2 1 1 1 2 3
0 0 0 0 0 0 0 0 0 1 2 4 6 6 6 7 7 6 4 4 3 3 3 3 3 3 3 4 5 5 4 3 2 1 1 1 1 2 3 2 1 1 3 3
0 0 0 0 0 0 0 1 1 1 2 3 4 6 6 6 6 6 6 5 4 3 3 3 3 3 3 4 4 4 3 3 3 3 2 1 1 2 4 4 3 4 4 4
0 0 0 0 0 0 1 2 2 3 3 3 4 5 6 6 6 6 6 5 4 3 3 3 2 2 2 3 3 3 3 3 3 3 3 3 2 2 3 4 5 5 4 4
0 0 0 0 0 1 2 3 3 3 3 3 3 4 4 5 6 5 4 4 3 2 2 1 1 1 1 1 2 3 3 3 3 3 3 3 2 2 2 3 3 3 2 2
0 0 0 0 0 1 2 3 3 3 3 3 3 3 3 4 4 4 3 2 1 1 1 0 0 0 0 1 2 3 3 3 3 3 3 2 1 1 0 1 1 1 0 1
1 1 0 0 0 1 2 3 3 3 3 3 3 3 3 2 2 2 1 1 0 0 0 0 0 0 1 2 3 3 3 3 3 2 2 1 0 0 0 0 0 0 0 0
2 1 0 0 0 1 2 3 3 3 3 3 3 2 1 1 1 1 0 0 0 0 0 0 0 0 1 2 3 3 3 2 1 1 1 0 0 0 0 0 0 0 0 0
1 1 0 0 0 0 1 3 3 3 3 2 1 1 0 0 0 0 0 0 0 0 0 0 0 0 1 3 3 3 2 1 0 0 0 0 0 0 0 0 0 0 0 0
0 0 0 0 0 0 1 3 3 3 2 1 0 0 0 0 0 0 0 0 0 0 0 0 0 1 2 2 2 1 1 0 0 0 0 0 0 0 0 0 0 0 0 0
0 0 0 0 0 1 2 3 3 2 1 0 0 0 0 0 0 0 0 0 0 0 0 0 1 2 2 2 1 0 0 0 0 0 0 0 0 0 0 0 0 0 0 0
Wind_Speed
4 4 3 4 5 6 6 8 8 8 8 9 6 5 4 3 3 3 4 4 5 6 5 4 4 4 5 5 5 5 6 6 6 5 5 4 4 4 4 4 4 4 4 3
1 1 2 2 3 5 4 3 4 3 6 5 3 1 2 3 4 5 5 5 5 6 5 5 5 5 5 5 5 5 6 6 5 5 5 5 4 4 4 4 3 3 3 4
2 2 2 3 5 5 4 3 6 6 7 3 2 4 5 5 5 6 5 5 5 5 5 5 5 5 6 5 4 5 5 5 5 5 5 4 4 4 4 4 4 4 4 3
2 2 4 8 2 4 4 2 3 3 4 4 4 3 2 2 4 4 4 4 4 4 3 3 4 4 5 5 5 4 4 3 3 4 4 3 3 4 4 3 4 3 3 3
4 3 5 5 2 3 4 3 3 3 2 1 1 2 2 1 2 4 4 3 3 3 3 3 4 4 5 5 4 4 3 3 3 4 3 3 3 3 3 3 3 3 2 3
5 4 6 7 3 1 4 4 4 3 4 3 3 1 4 2 0 1 1 1 1 2 3 4 3 5 5 4 4 3 3 3 3 4 4 4 4 3 2 2 3 3 2 2
4 4 7 5 3 3 4 8 3 3 4 5 4 5 3 0 1 1 2 2 3 4 3 3 4 5 5 4 3 3 3 3 3 3 3 3 3 2 2 2 2 2 2 2
4 3 7 3 2 4 6 3 2 3 4 4 2 1 1 2 2 3 4 4 4 5 4 3 4 5 4 3 2 2 3 3 2 2 2 2 2 2 2 2 2 2 1 1
6 7 5 2 3 4 2 2 3 2 3 4 3 2 2 2 3 3 4 4 3 5 4 4 3 4 3 2 2 3 3 2 2 2 2 2 3 2 2 2 2 2 2 2
2 4 3 3 3 2 1 1 2 2 4 4 3 3 3 3 3 3 3 3 4 5 5 3 2 2 2 2 3 4 3 2 2 2 1 1 1 2 2 2 2 2 2 2
2 4 4 4 3 2 2 1 2 3 3 4 5 4 3 3 2 3 2 3 4 4 4 2 1 1 1 2 3 4 3 2 2 1 1 1 1 1 2 2 3 3 3 3
6 6 4 6 5 3 1 1 2 4 4 3 4 4 3 3 2 3 3 3 3 4 4 2 2 1 1 1 3 4 3 2 1 1 1 1 1 1 2 0 1 2 2 2
5 4 4 5 4 3 1 1 2 4 4 3 3 3 3 3 2 3 3 3 3 3 3 2 2 1 1 1 3 4 3 2 2 2 1 1 1 1 0 2 2 2 1 1
4 2 2 3 3 2 2 2 3 3 3 4 3 3 3 3 3 3 3 2 3 3 3 2 2 1 0 1 3 3 3 2 2 1 1 1 1 1 1 1 1 2 2 2
4 3 4 3 1 1 1 3 4 3 3 3 3 3 3 3 3 2 2 2 3 3 3 2 2 1 1 2 3 3 2 2 2 1 1 1 1 1 1 1 0 1 2 2
3 2 1 2 1 1 2 3 3 3 3 3 3 3 3 3 2 2 2 3 3 3 2 2 1 1 1 2 3 2 2 3 3 2 1 1 1 1 1 0 0 1 1 2
3 3 3 2 2 2 3 3 3 3 3 3 3 3 3 4 3 2 1 1 2 2 2 1 0 0 1 2 2 2 1 2 3 2 1 1 1 1 0 1 1 1 2 2
5 5 5 5 4 3 2 2 3 3 3 3 4 4 4 4 4 2 1 1 3 2 1 0 1 1 2 2 2 2 2 2 2 1 1 1 1 0 0 1 1 1 2 2
3 4 4 3 4 3 3 2 3 3 3 4 4 4 3 3 4 3 3 3 2 1 2 1 1 2 2 2 3 2 2 2 2 1 1 1 1 0 0 1 1 1 1 1
1 2 2 2 2 3 3 2 2 2 2 4 4 4 3 3 3 3 3 2 2 2 2 1 1 2 2 2 3 2 2 2 2 1 1 1 1 1 1 1 1 1 1 1
1 1 2 2 2 2 2 3 3 3 3 4 5 5 4 3 3 3 3 2 2 1 1 2 2 1 1 2 2 2 2 2 2 2 1 1 1 0 1 0 0 1 1 1
1 1 1 1 2 1 1 2 3 3 3 3 4 4 4 3 3 2 2 3 2 2 2 2 2 2 3 2 2 2 2 2 2 1 1 1 1 1 1 1 1 0 0 1
2 2 2 2 2 2 1 1 2 3 4 4 5 5 5 4 3 3 2 2 2 3 2 2 2 3 3 2 2 2 2 2 2 2 1 1 1 1 1 1 0 0 0 0
1 1 1 1 1 1 1 0 1 1 2 2 3 4 4 3 2 2 2 2 2 3 2 2 2 3 4 2 2 2 2 2 2 2 1 1 1 1 1 1 1 0 1 1
2 1 1 2 2 2 2 1 1 1 2 2 2 2 2 3 3 2 2 2 3 3 1 2 3 4 3 2 2 2 1 1 1 2 1 1 1 1 1 1 1 0 0 1
2 2 2 2 2 2 2 2 1 1 2 2 2 1 2 2 2 2 2 2 3 2 1 1 1 2 2 2 2 2 1 1 1 1 1 1 1 1 1 1 1 0 0 0
1 1 1 1 1 1 2 2 2 2 2 3 2 2 2 2 2 2 2 2 2 1 1 1 1 1 1 1 1 1 1 1 1 1 1 1 1 1 1 1 1 1 1 1
Wind_Direction
223 219 175 192 198 182 180 183 184 219 223 247 242 230 221 195 175 163 169 172 179 185 190 190 184 183 180 178 175 175 174 184 195 191 186 185 185 189 195 196 199 194 190 189
285 262 171 210 233 203 202 190 196 216 253 252 252 193 184 193 182 186 195 194 191 185 182 187 190 188 180 176 169 165 174 187 183 172 176 185 184 185 189 195 198 193 200 199
243 295 50 255 224 193 186 191 175 203 234 237 225 212 208 203 199 204 207 203 196 192 189 189 188 177 175 173 160 163 178 181 174 171 179 188 180 176 190 199 197 200 206 206
136 81 214 239 235 177 172 209 208 215 230 208 214 219 209 194 202 215 214 209 201 189 187 184 170 163 157 148 151 160 170 170 166 164 174 174 169 183 192 194 195 205 208 212
130 172 258 285 247 166 173 246 233 214 223 174 124 61 341 276 202 207 216 217 209 193 172 153 147 142 133 136 140 149 167 173 173 166 161 164 178 193 188 181 194 210 214 212
132 158 222 240 260 226 122 261 253 199 189 170 112 135 260 277 155 174 139 125 126 123 123 125 124 126 126 129 132 157 177 178 166 160 161 175 188 188 183 181 197 205 218 221
154 194 250 256 296 93 159 236 242 199 187 176 190 211 221 139 54 72 87 100 103 103 108 118 115 121 127 133 165 183 168 157 153 159 168 173 175 168 164 174 186 198 209 236
149 179 245 279 98 174 217 258 225 199 184 176 190 171 133 116 102 89 84 84 97 101 95 95 108 119 128 154 183 148 129 132 141 147 149 145 142 142 147 151 159 186 209 257
187 209 243 253 226 244 218 219 228 193 171 153 146 149 123 101 100 97 101 96 95 108 99 92 101 118 141 172 145 125 119 128 136 126 123 136 149 158 160 162 173 201 215 248
265 273 279 286 300 317 308 237 226 157 144 138 137 136 122 115 104 97 94 105 99 104 105 92 93 132 160 147 129 125 127 127 118 116 118 128 147 163 171 184 194 208 222 245
265 282 319 308 290 302 337 30 98 101 113 131 125 127 128 122 111 106 99 98 103 113 117 112 104 105 94 118 125 120 121 118 114 125 141 150 148 167 191 213 209 205 223 224
228 233 220 263 280 290 302 69 124 111 94 88 121 131 117 116 116 113 110 102 101 94 92 92 81 63 66 122 127 122 116 115 121 130 142 147 143 44 26 263 270 215 232 232
234 244 237 263 288 280 242 191 147 131 131 125 114 121 118 116 117 108 104 109 122 119 105 94 87 71 66 121 124 125 130 131 129 131 138 143 145 146 44 5 20 20 342 287
240 238 267 261 254 251 192 150 116 105 108 122 124 116 111 109 109 111 123 126 126 111 101 95 87 73 61 129 119 120 124 127 129 144 150 152 155 157 162 159 348 341 343 339
263 237 222 234 246 248 149 127 114 111 109 107 119 124 124 121 121 121 125 120 111 97 91 92 82 16 29 116 120 126 129 130 128 124 130 140 141 139 140 145 235 314 329 332
281 280 201 170 192 199 136 135 145 159 140 128 126 129 130 127 123 118 123 128 121 117 109 105 86 325 158 134 122 125 132 123 117 119 115 108 111 123 130 122 302 302 300 305
210 231 209 194 202 191 183 178 175 177 157 146 150 141 129 121 113 100 54 92 125 127 122 139 184 312 115 132 136 139 127 125 115 110 114 117 112 123 159 183 238 275 285 297
215 223 215 198 203 204 195 175 177 180 173 163 144 137 141 147 160 170 166 120 96 76 38 235 176 132 128 139 144 138 127 125 119 121 121 116 118 160 222 232 249 272 304 316
218 214 215 215 218 207 191 187 189 184 172 154 148 157 163 167 170 168 154 135 130 147 292 304 118 121 128 146 134 131 130 129 117 116 119 116 114 145 222 233 275 298 303 308
223 190 189 201 207 185 181 190 175 165 167 155 149 146 150 169 169 157 143 161 217 219 228 215 138 127 143 160 141 144 142 143 143 144 137 143 173 228 244 242 255 276 304 319
194 169 165 186 185 176 184 187 177 175 168 161 164 172 176 180 170 156 150 203 263 226 182 165 158 162 171 166 146 147 147 151 158 163 165 178 199 242 280 272 263 272 298 319
206 176 173 162 164 189 203 184 172 168 165 170 171 171 168 173 166 158 190 213 219 185 176 175 174 178 173 161 157 154 155 159 168 172 175 181 187 205 233 243 260 288 356 19
205 191 197 196 191 188 182 182 178 174 182 186 183 182 181 177 167 169 214 235 199 177 169 181 178 166 149 141 147 149 150 157 171 179 185 189 193 197 196 197 194 136 58 6
197 195 206 194 139 131 151 234 170 167 173 175 176 173 164 154 168 211 206 191 176 165 166 176 162 152 144 144 143 146 159 170 176 181 184 188 193 183 170 153 128 74 39 1
176 169 157 147 161 178 175 144 103 114 127 124 127 140 155 166 174 184 161 151 147 142 151 160 153 154 152 149 153 162 172 183 187 182 185 183 180 159 141 132 128 123 15 360
167 170 179 182 179 169 160 154 160 161 135 121 116 133 134 132 135 135 131 133 134 135 147 158 160 158 160 161 167 177 184 193 193 177 164 157 151 137 125 124 129 170 328 334
140 142 135 121 134 161 155 152 153 159 157 151 152 159 148 139 131 131 133 132 127 134 149 170 171 169 166 166 168 169 165 161 154 145 142 141 138 140 158 176 196 224 267 285